Lapse_Rate
7.5 7.5 7.3 6.4 6.4 6.6 6.1 6.3 6.7 7.3 7.1 6.8 7.0 6.7 6.5 6.4 6.4 6.6 6.1 6.2 6.0 6.0 5.9 6.2 6.5 6.4 6.7 6.9 6.9 6.8 7.0 6.8 6.9 7.4 7.6 7.4 7.7 7.8 7.7 7.6 7.5 7.3 7.1 6.7
7.8 8.0 7.2 6.7 6.9 7.0 7.2 6.7 7.1 6.8 6.4 6.5 6.7 6.8 6.4 6.5 6.6 6.6 6.2 5.9 5.9 5.7 6.0 6.1 6.5 6.5 6.3 6.8 6.5 6.8 6.8 6.8 6.5 6.9 7.1 7.1 7.3 7.5 7.4 7.5 7.4 7.2 7.1 7.0
7.5 7.8 7.5 7.0 7.2 7.6 7.7 6.8 6.9 6.7 6.6 6.2 6.2 6.7 6.6 6.7 6.3 6.4 6.3 6.0 5.8 5.7 6.0 6.0 6.2 6.4 6.6 6.6 6.7 6.7 6.5 6.4 6.7 6.6 6.4 6.6 7.1 7.3 7.2 7.0 7.3 7.2 7.1 7.0
7.2 7.7 7.3 7.6 8.6 8.2 7.2 6.6 6.5 6.3 6.1 6.4 6.8 6.8 6.7 6.4 6.1 6.1 5.9 5.6 5.4 5.4 5.4 5.2 5.8 6.4 6.5 6.5 6.7 6.6 6.6 6.8 6.6 6.2 6.4 6.4 6.3 6.4 6.4 6.8 6.8 6.9 6.9 7.0
7.3 7.7 7.5 8.5 7.7 6.7 7.3 6.6 6.7 6.6 6.6 6.7 6.8 6.9 6.3 5.8 5.8 5.9 5.9 5.8 5.2 5.1 5.1 5.3 5.1 5.7 6.0 6.5 6.6 6.3 6.4 6.3 6.4 6.4 6.4 6.3 6.2 5.9 6.1 6.1 6.0 5.9 6.0 6.4
7.4 7.3 6.9 6.6 6.7 6.9 6.3 6.5 6.6 6.4 6.5 6.8 6.9 6.7 6.6 6.3 5.6 5.9 5.9 5.7 5.1 4.7 4.7 4.7 4.7 4.8 5.4 6.0 5.8 6.0 5.9 5.9 6.2 5.9 6.1 6.2 6.2 6.1 6.0 6.1 6.1 6.2 6.0 6.0
7.2 6.9 6.7 6.7 6.3 7.0 6.6 5.7 6.5 6.5 6.8 7.2 7.2 6.8 6.6 6.4 5.7 5.8 6.0 5.5 5.1 4.9 4.7 4.5 4.8 4.7 4.8 5.0 5.3 4.9 4.8 5.0 4.8 4.5 4.3 5.0 4.6 5.3 5.4 5.4 5.4 5.5 5.3 5.5
6.8 6.5 7.0 6.7 6.8 6.8 6.1 6.1 6.8 7.1 6.9 7.1 7.0 6.2 5.6 5.6 5.8 5.6 5.5 4.9 4.8 4.7 4.6 4.4 4.5 4.6 4.7 4.6 4.7 4.7 4.5 4.7 4.4 4.1 4.2 4.2 4.1 4.0 4.3 4.5 4.1 3.8 4.3 4.6
6.8 6.3 6.2 6.3 6.3 6.1 6.2 6.5 6.8 6.9 6.7 6.4 6.2 5.8 5.7 5.6 5.4 5.2 5.0 5.0 4.9 4.8 4.8 4.7 4.7 4.7 4.6 4.7 4.6 4.2 4.0 4.0 4.1 3.6 3.9 4.0 4.0 3.9 3.7 4.0 3.3 3.3 3.0 3.6
6.8 6.5 6.5 6.6 6.7 6.8 6.2 6.1 6.3 6.5 6.4 6.4 6.4 6.1 5.7 5.4 5.3 5.2 5.0 4.8 4.9 4.8 4.8 4.7 4.8 4.8 4.7 4.6 4.5 4.3 4.1 4.1 4.0 3.9 3.6 3.6 3.6 3.2 3.5 3.5 3.6 3.8 3.8 3.6
6.3 6.2 6.4 6.5 6.3 6.3 6.2 6.0 5.9 6.2 6.2 6.2 6.2 6.1 5.7 5.4 5.3 5.2 5.0 4.9 5.0 5.0 4.8 4.7 4.8 4.7 4.7 4.7 4.6 4.5 4.4 4.4 4.3 4.2 4.2 4.2 4.2 4.3 4.2 4.0 3.9 4.0 4.1 4.1
6.2 6.2 6.4 6.4 6.2 6.2 6.1 6.2 6.1 6.1 6.1 6.2 6.1 5.9 5.9 5.9 5.7 5.4 5.4 5.2 5.1 5.0 5.0 4.9 4.6 4.6 4.9 5.1 5.0 4.8 4.7 4.6 4.6 4.4 4.1 4.2 4.2 4.2 4.1 4.0 4.1 4.2 4.1 4.1
6.4 6.3 6.1 6.1 6.1 5.9 6.0 6.2 6.3 6.2 6.1 6.3 6.4 6.1 6.1 6.1 6.0 5.8 5.7 5.5 5.4 5.2 5.1 5.0 4.9 4.8 4.7 4.8 4.8 4.9 5.0 4.9 4.7 4.6 4.7 4.5 4.5 4.5 4.6 4.8 4.9 4.8 4.9 4.9
6.4 6.2 6.2 6.1 6.1 6.2 6.3 6.4 6.4 6.5 6.4 6.6 6.6 6.6 6.4 6.2 6.1 6.0 5.8 5.6 5.5 5.5 5.4 5.3 5.2 5.1 5.1 5.0 5.0 5.0 4.9 4.8 4.7 4.7 4.7 4.8 4.9 5.0 5.0 4.8 4.8 4.8 4.7 4.7
6.5 6.3 6.0 6.2 6.3 6.5 6.8 6.9 6.8 6.8 6.4 6.8 6.7 6.6 6.4 6.3 6.1 5.9 5.8 5.7 5.5 5.4 5.3 5.3 5.2 5.2 5.1 5.0 4.9 4.9 4.8 4.7 4.6 4.5 4.6 4.6 4.5 4.4 4.3 4.3 4.3 4.3 4.3 4.2
6.4 6.3 6.4 6.4 6.5 6.6 6.9 6.9 6.6 6.6 6.5 6.6 6.5 6.4 6.3 6.1 6.0 5.8 5.7 5.4 5.3 5.3 5.4 5.3 5.2 5.2 5.2 5.0 4.8 4.7 4.5 4.6 4.5 4.4 4.4 4.4 4.4 4.4 4.4 4.3 4.2 4.2 4.2 4.2
6.5 6.5 6.6 6.6 6.6 6.5 6.5 6.3 6.3 6.4 6.4 6.4 6.3 6.2 6.0 5.9 5.7 5.6 5.5 5.3 5.2 5.0 4.9 4.9 4.9 4.9 4.8 4.8 4.6 4.5 4.5 4.5 4.4 4.4 4.4 4.4 4.4 4.5 4.5 4.4 4.5 4.5 4.6 4.6
6.4 6.4 6.5 6.6 6.4 6.2 6.1 6.1 6.0 6.0 5.9 5.8 5.7 5.6 5.5 5.4 5.3 5.1 5.0 4.8 4.7 4.6 4.5 4.4 4.3 4.3 4.4 4.4 4.4 4.3 4.3 4.2 4.2 4.2 4.2 4.3 4.3 4.3 4.5 4.5 4.4 4.3 4.4 4.4
6.3 6.3 6.3 6.3 6.3 6.2 6.1 6.1 6.0 5.9 5.7 5.6 5.5 5.4 5.3 5.2 5.0 4.8 4.7 4.7 4.6 4.5 4.3 4.2 4.1 4.1 4.1 4.1 4.0 3.9 3.9 4.0 4.0 4.1 4.2 4.2 4.3 4.2 4.1 4.1 4.1 4.1 4.0 3.9
6.5 6.5 6.4 6.4 6.3 6.2 5.9 5.7 5.6 5.6 5.6 5.5 5.4 5.2 5.1 5.0 4.9 4.8 4.7 4.6 4.5 4.4 4.3 4.3 4.2 4.2 4.2 4.3 4.3 4.3 4.3 4.5 4.5 4.5 4.5 4.4 4.3 4.2 4.2 4.2 4.1 4.2 4.2 4.2
6.4 6.2 6.1 5.8 5.8 5.8 5.8 5.6 5.4 5.3 5.1 5.0 5.0 4.9 4.9 4.9 4.9 5.0 5.0 4.6 4.7 4.9 4.8 4.7 4.8 4.7 4.7 4.6 4.5 4.4 4.3 4.3 4.4 4.4 4.3 4.4 4.5 4.5 4.5 4.4 4.5 4.5 4.5 4.5
6.2 6.1 6.0 5.8 5.7 5.4 5.2 5.1 5.0 5.0 5.0 5.0 5.0 4.9 4.9 4.9 4.9 5.0 5.2 5.3 5.4 5.4 5.3 5.3 5.1 5.1 5.1 5.0 5.0 4.8 4.7 4.6 4.4 4.4 4.3 4.3 4.3 4.3 4.2 4.2 4.2 4.3 4.2 4.2
5.8 5.6 5.4 5.3 5.3 5.3 5.3 5.2 5.2 5.2 5.2 5.1 5.1 5.1 5.3 5.4 5.6 5.7 5.6 5.6 5.6 5.5 5.4 5.4 5.3 5.3 5.2 5.2 5.1 5.0 4.9 4.8 4.7 4.6 4.5 4.4 4.4 4.2 4.2 4.1 4.0 4.0 3.9 3.8
5.5 5.5 5.6 5.5 5.5 5.4 5.4 5.4 5.2 5.2 5.2 5.1 5.0 5.1 5.1 5.3 5.7 5.8 5.6 5.5 5.4 5.5 5.4 5.3 5.2 5.1 5.0 5.0 4.9 4.8 4.8 4.7 4.6 4.6 4.5 4.4 4.3 4.2 4.2 4.1 4.0 3.9 3.9 3.8
5.7 5.6 5.6 5.5 5.4 5.4 5.3 5.2 5.1 5.2 5.1 5.1 5.1 5.2 5.3 5.4 5.4 5.5 5.6 5.5 5.4 5.3 5.1 4.9 4.8 4.7 4.7 4.6 4.5 4.5 4.5 4.5 4.4 4.4 4.4 4.4 4.4 4.3 4.3 4.3 4.2 4.1 4.1 4.1
5.5 5.4 5.5 5.5 5.4 5.4 5.5 5.5 5.3 5.3 5.2 5.2 5.3 5.4 5.7 5.6 5.4 5.3 5.1 5.1 5.1 5.2 5.2 5.2 5.1 5.0 4.9 4.9 4.9 4.9 4.9 4.8 4.8 4.8 4.7 4.6 4.6 4.7 4.7 4.7 4.7 4.7 4.7 4.7
5.7 5.7 5.6 5.5 5.2 4.9 4.9 4.9 4.9 5.0 5.0 5.0 5.1 5.3 5.5 5.4 5.4 5.6 5.8 5.9 5.9 5.8 5.8 5.8 5.8 5.8 5.7 5.6 5.5 5.4 5.4 5.3 5.3 5.2 5.2 5.3 5.2 5.2 5.2 5.2 5.2 5.2 5.2 5.2
Wind_Speed
13 18 19 17 21 17 14 16 5 9 11 9 13 14 10 10 8 12 13 14 13 12 11 12 14 14 14 14 14 11 9 12 10 8 9 9 10 10 10 11 11 10 11 11
11 17 18 21 19 16 14 15 8 2 7 12 14 13 13 10 10 11 12 12 12 13 12 12 13 12 12 14 14 12 11 11 9 11 10 11 11 10 11 12 11 11 11 10
8 13 12 10 13 16 10 7 1 0 5 4 9 13 12 10 10 11 11 11 12 12 11 10 10 10 12 12 13 14 13 12 11 11 12 11 11 11 12 12 12 12 11 11
6 10 5 3 14 9 18 11 12 14 11 8 11 11 12 11 9 10 10 10 9 8 9 9 8 10 10 12 13 14 15 13 12 12 12 12 13 13 12 11 12 11 11 11
3 3 8 5 9 8 1 9 16 12 11 8 12 11 13 10 9 9 8 7 7 8 8 9 9 8 10 12 12 13 12 14 12 14 12 13 14 13 11 11 11 11 10 12
2 3 4 10 17 24 20 6 13 11 9 8 5 0 3 7 7 8 8 6 7 6 5 7 9 8 10 12 11 13 11 11 11 12 11 12 11 12 11 11 11 9 11 11
6 2 3 9 24 24 3 4 10 10 10 12 6 6 6 4 7 7 7 9 7 7 7 6 7 8 11 11 13 10 10 10 11 9 9 12 8 10 12 11 10 12 12 12
4 4 1 21 9 7 5 10 11 11 10 13 12 11 9 9 9 7 8 8 9 7 7 6 7 7 11 12 9 10 11 12 12 11 10 8 10 8 9 10 12 9 8 11
5 3 6 8 10 10 11 10 10 10 9 10 10 10 9 8 9 10 8 9 8 7 10 10 7 9 10 10 11 11 12 12 12 11 12 12 11 10 7 9 6 9 6 7
4 5 10 10 9 11 10 11 11 11 10 9 10 9 8 7 9 9 9 9 10 11 12 12 11 12 9 10 10 11 10 11 10 11 12 11 8 8 8 8 7 7 5 7
5 8 8 10 10 8 8 10 12 11 11 11 9 8 9 8 8 8 8 9 10 10 10 10 11 11 12 9 8 9 9 9 10 9 10 11 10 8 9 11 8 6 6 6
3 6 5 4 6 7 10 10 10 10 11 11 11 10 9 8 8 8 9 9 9 10 9 9 10 11 12 11 10 9 8 6 7 7 5 7 7 10 22 20 20 19 17 10
3 6 8 7 7 9 10 10 10 10 9 12 11 10 10 8 8 11 9 9 9 9 9 9 10 11 11 10 11 11 9 8 6 5 4 5 5 7 8 11 19 19 18 17
4 5 7 6 4 6 7 10 14 13 11 10 11 10 9 8 8 9 9 8 8 8 9 8 9 11 11 9 9 8 7 9 5 4 4 4 4 4 4 5 6 2 12 12
5 5 5 5 7 7 7 11 13 12 9 10 10 10 10 10 10 10 8 9 9 9 8 8 8 9 9 8 5 6 4 3 2 2 2 4 4 6 6 5 4 4 4 6
3 5 5 8 12 13 13 13 11 10 8 9 9 11 11 10 10 9 9 9 8 7 7 6 7 7 7 7 4 3 3 5 5 3 3 4 3 5 6 5 4 3 3 2
5 5 4 9 11 12 12 9 10 10 10 9 9 9 9 9 9 7 6 6 6 5 4 4 4 5 6 6 6 2 3 4 6 5 4 3 4 5 5 5 4 3 2 3
10 9 10 9 10 10 9 10 9 9 8 7 6 7 7 6 5 3 2 2 4 6 6 6 6 5 6 7 7 3 3 3 4 3 3 4 4 4 5 5 4 2 2 5
10 11 11 11 10 10 9 9 9 7 6 6 7 6 4 4 3 3 4 5 4 5 5 7 9 7 8 10 9 4 4 5 5 5 4 5 5 4 4 4 4 3 4 4
11 10 11 11 10 9 8 6 6 6 4 5 4 5 5 3 3 4 4 3 1 2 3 6 7 8 8 10 10 5 5 5 4 3 3 3 3 3 2 4 3 3 3 3
8 8 8 8 7 6 6 5 6 5 3 4 5 3 3 3 1 1 5 2 4 3 1 5 5 4 5 7 4 4 5 4 4 3 3 3 3 3 3 3 3 3 3 2
4 5 6 5 7 6 4 4 5 4 3 3 1 0 1 3 2 2 1 3 0 5 4 2 2 4 4 7 3 4 4 4 3 3 3 3 3 3 3 3 3 2 3 3
4 4 4 5 6 5 4 4 4 4 4 3 2 1 1 1 2 4 1 2 2 4 3 1 2 4 6 4 3 3 3 3 3 3 2 3 2 3 3 2 1 2 2 2
4 4 4 4 5 5 5 5 6 5 5 5 5 5 2 2 2 3 3 4 3 3 3 2 2 3 3 3 1 2 2 2 2 2 2 2 1 0 1 3 1 1 2 1
5 4 4 4 6 4 6 6 6 7 6 7 8 6 4 3 3 3 4 3 5 3 3 5 5 4 2 2 1 1 1 2 2 2 0 0 1 0 1 1 3 3 3 2
6 4 4 4 1 2 2 1 1 1 0 1 1 3 3 2 3 3 3 4 4 4 3 4 3 2 3 3 1 2 2 2 2 3 3 3 2 1 2 1 2 3 4 4
3 2 2 1 2 3 3 2 3 2 3 3 2 2 2 2 3 3 2 3 3 3 4 3 2 4 4 3 3 3 3 3 3 3 2 2 2 2 2 3 3 3 6 6
Wind_Direction
276 281 292 279 281 285 303 287 269 312 338 47 80 101 91 84 62 51 36 27 17 20 16 19 18 14 14 13 12 15 59 80 73 73 68 73 66 69 73 73 76 83 86 75
291 304 276 275 276 280 282 274 251 285 292 77 78 85 73 64 59 55 45 33 20 24 21 24 29 17 16 17 17 16 47 61 72 75 71 67 64 70 74 75 74 76 67 68
279 295 283 256 252 249 232 272 25 232 99 74 78 67 46 60 60 56 50 37 24 20 14 25 29 33 25 21 25 28 41 51 61 72 78 72 70 67 72 77 75 65 69 63
280 289 245 204 346 295 102 61 77 85 102 85 94 81 58 45 59 56 49 39 25 18 5 5 14 31 48 34 36 37 34 42 52 62 70 79 77 70 66 68 71 73 59 60
250 266 299 341 5 340 211 61 34 49 45 110 139 112 57 45 50 53 48 43 33 27 22 12 13 8 51 52 43 45 34 37 40 60 62 67 75 75 69 70 69 67 67 64
324 354 311 342 330 316 296 93 37 37 21 357 153 23 68 41 50 58 47 33 35 27 26 32 24 19 40 53 52 44 34 37 38 48 60 70 70 75 75 72 69 68 66 62
215 212 270 356 317 296 139 60 48 53 46 44 78 73 96 70 67 57 51 44 29 36 50 34 24 35 54 50 39 35 39 41 40 30 46 68 60 87 91 83 72 70 66 60
212 202 351 0 351 49 48 57 67 68 75 88 94 89 69 53 41 53 62 54 42 40 47 46 40 61 68 61 50 50 47 47 45 39 45 40 71 62 75 81 85 68 71 76
40 65 47 36 46 35 50 63 71 87 91 94 89 77 65 57 46 43 54 60 48 44 55 40 47 64 65 56 51 51 56 46 44 41 45 46 39 51 63 73 59 81 63 66
108 65 53 32 55 46 44 70 70 71 79 82 88 80 72 55 48 43 39 52 51 47 42 32 22 32 87 90 82 73 70 65 55 55 53 50 48 44 53 55 54 77 73 60
90 109 108 54 37 53 75 75 69 70 78 83 89 81 77 66 55 51 51 53 51 48 45 34 24 27 32 54 86 88 83 78 71 62 61 67 62 58 59 57 71 74 65 71
62 7 101 54 60 61 58 68 89 91 87 80 80 78 75 69 62 56 50 50 53 46 39 34 33 32 34 37 50 65 64 81 92 94 88 80 75 75 68 72 72 77 76 70
69 73 91 99 77 93 90 84 76 87 84 89 82 85 81 79 72 71 63 58 54 45 35 30 28 28 25 33 47 52 53 53 55 63 103 105 97 91 88 67 74 72 73 74
30 132 97 38 96 99 99 103 98 81 78 90 98 94 88 83 80 77 71 68 59 46 35 27 30 24 9 17 43 50 58 58 60 57 58 67 103 139 125 99 91 45 68 75
72 70 101 170 161 177 150 95 84 81 79 74 74 79 76 73 63 46 64 72 68 56 38 27 26 17 1 360 38 46 37 53 63 61 62 73 74 83 90 91 81 56 35 14
102 96 86 73 68 57 69 81 90 88 83 84 87 86 84 80 70 58 51 51 62 49 31 20 22 354 356 5 340 42 38 52 60 54 57 60 69 95 95 86 75 63 47 1
160 61 89 93 84 76 72 80 88 88 82 73 68 95 98 93 84 70 52 52 58 43 12 9 338 346 357 9 7 22 48 45 51 49 42 56 58 66 93 89 83 68 33 350
81 77 56 85 105 102 89 80 76 75 75 78 68 71 72 75 85 84 126 78 48 33 11 359 338 2 6 4 356 27 51 73 75 63 49 50 58 62 83 115 114 84 37 63
66 68 70 77 84 89 88 84 77 74 69 78 79 80 82 68 63 49 52 77 60 41 345 352 360 19 14 6 8 33 43 65 64 47 50 78 70 58 63 76 94 109 103 89
75 70 67 68 71 84 90 81 86 78 65 92 85 73 62 22 32 56 63 81 219 245 329 26 25 11 16 358 356 25 37 41 59 64 71 70 94 92 86 85 94 100 99 99
80 84 84 83 82 75 77 88 89 75 36 81 106 135 173 237 298 287 158 131 279 328 78 58 38 10 356 350 348 35 40 38 43 57 52 57 76 81 86 74 84 98 102 104
95 101 110 100 91 89 85 93 99 99 87 78 58 200 211 273 294 29 203 150 181 50 82 54 26 12 348 342 22 36 40 45 46 45 48 55 63 58 59 68 67 54 71 67
114 118 115 110 122 138 113 120 144 152 168 176 146 44 337 244 154 147 115 59 70 97 106 74 352 19 2 359 33 43 23 39 42 60 71 66 85 109 112 109 78 78 101 100
122 110 130 142 138 148 160 190 185 173 175 186 193 202 184 85 48 85 119 146 134 108 143 190 293 335 357 329 63 65 40 42 75 77 62 353 291 168 123 163 158 144 123 125
132 149 164 183 211 203 171 187 184 186 198 213 199 192 206 160 144 194 163 184 194 189 181 197 219 257 269 292 259 176 211 161 181 177 180 209 278 24 254 173 168 167 173 192
176 191 195 172 147 101 89 60 359 82 269 316 232 163 174 151 150 169 186 185 186 221 195 204 201 222 242 241 157 198 239 261 237 203 209 234 206 272 280 253 206 204 207 215
137 129 143 167 81 95 77 70 78 44 78 72 32 354 197 192 179 197 174 201 226 223 232 234 191 199 216 215 215 230 245 253 220 206 199 202 204 222 250 245 242 178 149 150